Location: Newark
(34.0635°N, 86.7609°W)
Time: 11:55:10
(UTC+00:00)

N. Korean satellite - Pass Details

Date: 20 December 2019
Orbit: 454 x 508 km, 97.2° (Epoch: 17 January)

Event Time Altitude Azimuth Distance (km) Brightness Sun altitude
Rises 11:46:03 0° 6° (N) 2,490 10.0 -12.6°
Reaches altitude 10° 11:48:08 10° 2° (N) 1,606 9.0 -12.2°
Maximum altitude 11:51:30 55° 284° (WNW) 554 6.5 -11.5°
Drops below altitude 10° 11:54:49 10° 205° (SSW) 1,583 9.1 -10.9°
Sets 11:56:51 0° 201° (SSW) 2,451 10.1 -10.5°
